Regional Weather Roundup
Issued by NWS

Home | Current Version | Previous Version | Text Only | Print | Product List | Glossary On
Versions: 1 2 3 4 5 6 7 8 9 10 11 12 13 14 15 16 17 18 19 20 21 22 23 24 25 26 27
000
ASCA42 TJSJ 230610
RWRPR
PUERTO RICO/U.S. VIRGIN ISLANDS HOURLY WEATHER ROUNDUP
NATIONAL WEATHER SERVICE SAN JUAN PR
200 AM AST MON OCT 23 2017

PRZ001>002-007>008-010-230700-
PUERTO RICO

CITY           SKY/WX    TMP DP  RH WIND       PRES   REMARKS
SAN JUAN LMM   PTCLDY    81  75  83 SE3       30.00F
$$

VIZ001>002-230700-
U.S. VIRGIN ISLANDS

CITY           SKY/WX    TMP DP  RH WIND       PRES   REMARKS
CHARLOTTE AMA    N/A     79  75  89 E9        29.99
$$

HOURLY WEATHER ROUNDUP FOR THE NEWS MEDIA

CITY           SKY/WX    TMP DP  RH WIND       PRES   REMARKS
NEW YORK       MOCLDY    58  58 100 SE5       30.36F
NEWARK         MOCLDY    60  58  92 CALM      30.34F
CHICAGO        LGT RAIN  51  49  92 N9        29.98F
HARTFORD       FOG       48  47  96 CALM      30.39F VSB 1/4
BOSTON         CLOUDY    55  55 100 CALM      30.40F
DALLAS         PTCLDY    54  47  77 CALM      30.15S
PHILADELPHIA   CLOUDY    62  59  90 E5        30.33S
LOS ANGELES    PTCLDY    69  56  62 E5        30.07R
WASHINGTON DC  CLOUDY    56  56 100 CALM      30.28F



USA.gov is the U.S. government's official web portal to all federal, state and local government web resources and services.